When you browse on this site, cookies collect data to enhance your experience and personalize the content and advertising you see.
Visit our Privacy Policy to learn more. By continuing to use the site, you agree to this use of cookies and data.
  • In Hungary
  • List of Countries
  • For 7 days
  • Water Temperature
  • Weather Map
  • News
  • Weather Widgets
  • user-avatar
    Login

    Hourly Weather Zehida

    Today, 17 October, Thursday

    Time Temperature Precipitation Wind Pressure Humidity
    00:00 +7°C° 0 mm 1 mps 599 mmHg 54%
    01:00 +6°C° 0 mm 1 mps 599 mmHg 54%
    02:00 +6°C° 0 mm 1 mps 599 mmHg 55%
    03:00 +6°C° 0 mm 1 mps 599 mmHg 54%
    04:00 +6°C° 0 mm 1 mps 600 mmHg 54%
    05:00 +6°C° 0 mm 1 mps 600 mmHg 54%
    06:00 +6°C° 0 mm 1 mps 600 mmHg 55%
    07:00 +8°C° 0 mm 1 mps 601 mmHg 50%
    08:00 +10°C° 0 mm 1 mps 602 mmHg 46%
    09:00 +13°C° 0 mm 1 mps 603 mmHg 41%
    10:00 +14°C° 0 mm 1 mps 603 mmHg 40%
    11:00 +15°C° 0 mm 2 mps 603 mmHg 38%
    12:00 +15°C° 0 mm 2 mps 604 mmHg 37%
    13:00 +15°C° 0 mm 2 mps 603 mmHg 38%
    14:00 +15°C° 0 mm 2 mps 603 mmHg 39%
    15:00 +15°C° 0 mm 2 mps 603 mmHg 39%
    16:00 +12°C° 0 mm 1 mps 602 mmHg 48%
    17:00 +10°C° 0 mm 1 mps 601 mmHg 57%
    18:00 +8°C° 0 mm 1 mps 600 mmHg 66%
    19:00 +7°C° 0 mm 1 mps 600 mmHg 65%
    20:00 +7°C° 0 mm 1 mps 599 mmHg 64%
    21:00 +6°C° 0 mm 1 mps 599 mmHg 63%
    22:00 +6°C° 0 mm 1 mps 599 mmHg 62%
    23:00 +6°C° 0 mm 1 mps 599 mmHg 62%

    Tomorrow, 18 October, Friday

    Time Temperature Precipitation Wind Pressure Humidity
    00:00 +6°C° 0 mm 1 mps 598 mmHg 61%
    01:00 +6°C° 0 mm 1 mps 598 mmHg 61%
    02:00 +6°C° 0 mm 1 mps 598 mmHg 60%
    03:00 +6°C° 0 mm 1 mps 598 mmHg 60%
    04:00 +6°C° 0 mm 1 mps 598 mmHg 60%
    05:00 +6°C° 0 mm 1 mps 598 mmHg 60%
    06:00 +6°C° 0 mm 1 mps 598 mmHg 60%
    07:00 +8°C° 0 mm 1 mps 599 mmHg 53%
    08:00 +11°C° 0 mm 1 mps 600 mmHg 46%
    09:00 +13°C° 0 mm 0 mps 601 mmHg 40%
    10:00 +15°C° 0 mm 1 mps 601 mmHg 37%
    11:00 +16°C° 0 mm 1 mps 602 mmHg 34%
    12:00 +18°C° 0 mm 1 mps 602 mmHg 30%
    13:00 +18°C° 0 mm 1 mps 601 mmHg 32%
    14:00 +16°C° 0 mm 1 mps 601 mmHg 34%
    15:00 +16°C° 0 mm 1 mps 601 mmHg 36%
    16:00 +14°C° 0 mm 1 mps 600 mmHg 42%
    17:00 +12°C° 0 mm 1 mps 599 mmHg 48%
    18:00 +10°C° 0 mm 1 mps 598 mmHg 54%
    19:00 +9°C° 0 mm 1 mps 598 mmHg 52%
    20:00 +8°C° 0 mm 2 mps 598 mmHg 49%
    21:00 +8°C° 0 mm 2 mps 598 mmHg 47%
    22:00 +8°C° 0 mm 1 mps 598 mmHg 46%
    23:00 +8°C° 0 mm 1 mps 597 mmHg 45%

    Day after tomorrow, 19 October, Saturday

    Time Temperature Precipitation Wind Pressure Humidity
    00:00 +7°C° 0 mm 1 mps 597 mmHg 45%
    01:00 +7°C° 0 mm 1 mps 597 mmHg 45%
    02:00 +7°C° 0 mm 1 mps 597 mmHg 44%
    03:00 +7°C° 0 mm 1 mps 597 mmHg 44%
    04:00 +7°C° 0 mm 1 mps 597 mmHg 45%
    05:00 +7°C° 0 mm 1 mps 597 mmHg 46%
    06:00 +7°C° 0 mm 1 mps 597 mmHg 47%
    07:00 +9°C° 0 mm 1 mps 598 mmHg 44%
    08:00 +12°C° 0 mm 1 mps 600 mmHg 40%
    09:00 +13°C° 0 mm 0 mps 601 mmHg 37%
    10:00 +15°C° 0 mm 1 mps 601 mmHg 37%
    11:00 +16°C° 0 mm 1 mps 601 mmHg 37%
    12:00 +16°C° 0 mm 1 mps 602 mmHg 37%
    13:00 +16°C° 0.1 mm 1 mps 601 mmHg 39%
    14:00 +16°C° 0.1 mm 1 mps 601 mmHg 42%
    15:00 +15°C° 0.1 mm 1 mps 601 mmHg 44%
    16:00 +14°C° 0.2 mm 1 mps 600 mmHg 51%
    17:00 +12°C° 0.2 mm 1 mps 600 mmHg 58%
    18:00 +10°C° 0.2 mm 1 mps 599 mmHg 66%
    19:00 +10°C° 0 mm 1 mps 599 mmHg 68%
    20:00 +8°C° 0 mm 0 mps 599 mmHg 70%
    21:00 +7°C° 0 mm 0 mps 599 mmHg 73%
    22:00 +7°C° 0 mm 0 mps 599 mmHg 74%
    23:00 +7°C° 0 mm 0 mps 599 mmHg 76%

    20 October, Sunday

    Time Temperature Precipitation Wind Pressure Humidity
    00:00 +7°C° 0 mm 1 mps 599 mmHg 78%
    01:00 +7°C° 0 mm 1 mps 599 mmHg 79%
    02:00 +7°C° 0 mm 1 mps 598 mmHg 80%
    03:00 +6°C° 0 mm 1 mps 598 mmHg 81%
    04:00 +6°C° 0 mm 1 mps 599 mmHg 80%
    05:00 +6°C° 0 mm 1 mps 599 mmHg 80%
    06:00 +6°C° 0 mm 1 mps 599 mmHg 79%
    07:00 +8°C° 0 mm 1 mps 600 mmHg 73%
    08:00 +10°C° 0 mm 1 mps 601 mmHg 66%
    09:00 +12°C° 0 mm 1 mps 602 mmHg 59%
    10:00 +13°C° 0.1 mm 1 mps 602 mmHg 58%
    11:00 +14°C° 0.1 mm 1 mps 602 mmHg 58%
    12:00 +14°C° 0.1 mm 2 mps 603 mmHg 57%
    13:00 +14°C° 0.4 mm 2 mps 602 mmHg 59%
    14:00 +14°C° 0.4 mm 1 mps 602 mmHg 61%
    15:00 +13°C° 0.4 mm 1 mps 602 mmHg 63%
    16:00 +12°C° 0.3 mm 1 mps 601 mmHg 71%
    17:00 +10°C° 0.3 mm 1 mps 601 mmHg 79%
    18:00 +9°C° 0.3 mm 1 mps 600 mmHg 87%
    19:00 +8°C° 0.1 mm 1 mps 600 mmHg 88%
    20:00 +7°C° 0.1 mm 0 mps 600 mmHg 89%
    21:00 +7°C° 0.1 mm 0 mps 600 mmHg 90%
    22:00 +7°C° 0 mm 0 mps 600 mmHg 90%
    23:00 +8°C° 0 mm 1 mps 600 mmHg 90%

    21 October, Monday

    Time Temperature Precipitation Wind Pressure Humidity
    00:00 +8°C° 0 mm 1 mps 600 mmHg 90%
    01:00 +7°C° 0 mm 1 mps 600 mmHg 89%
    02:00 +7°C° 0 mm 1 mps 600 mmHg 88%
    03:00 +6°C° 0 mm 0 mps 600 mmHg 88%
    04:00 +7°C° 0 mm 1 mps 600 mmHg 88%
    05:00 +6°C° 0 mm 1 mps 599 mmHg 88%
    06:00 +6°C° 0 mm 1 mps 599 mmHg 88%
    07:00 +7°C° 0 mm 1 mps 600 mmHg 82%
    08:00 +9°C° 0 mm 1 mps 601 mmHg 76%
    09:00 +11°C° 0 mm 1 mps 602 mmHg 70%
    10:00 +11°C° 0 mm 1 mps 602 mmHg 68%
    11:00 +12°C° 0 mm 2 mps 602 mmHg 65%
    12:00 +13°C° 0 mm 2 mps 602 mmHg 63%
    13:00 +13°C° 0.1 mm 2 mps 602 mmHg 64%
    14:00 +13°C° 0.1 mm 2 mps 602 mmHg 66%
    15:00 +13°C° 0.1 mm 2 mps 601 mmHg 67%
    16:00 +11°C° 0 mm 1 mps 601 mmHg 74%
    17:00 +10°C° 0 mm 1 mps 600 mmHg 81%
    18:00 +8°C° 0 mm 1 mps 600 mmHg 88%
    19:00 +8°C° 0 mm 1 mps 600 mmHg 89%
    20:00 +7°C° 0 mm 1 mps 599 mmHg 90%
    21:00 +7°C° 0 mm 1 mps 599 mmHg 91%
    22:00 +6°C° 0 mm 1 mps 599 mmHg 90%
    23:00 +6°C° 0 mm 1 mps 599 mmHg 90%

    22 October, Tuesday

    Time Temperature Precipitation Wind Pressure Humidity
    00:00 +6°C° 0 mm 1 mps 599 mmHg 89%
    01:00 +6°C° 0 mm 1 mps 599 mmHg 89%
    02:00 +6°C° 0 mm 1 mps 599 mmHg 89%
    03:00 +6°C° 0 mm 1 mps 599 mmHg 88%
    04:00 +5°C° 0 mm 1 mps 598 mmHg 88%
    05:00 +5°C° 0 mm 1 mps 598 mmHg 88%
    06:00 +5°C° 0 mm 1 mps 598 mmHg 87%
    07:00 +7°C° 0 mm 1 mps 599 mmHg 79%
    08:00 +8°C° 0 mm 1 mps 600 mmHg 72%
    09:00 +10°C° 0 mm 1 mps 601 mmHg 64%
    10:00 +11°C° 0 mm 1 mps 601 mmHg 61%
    11:00 +13°C° 0 mm 2 mps 602 mmHg 57%
    12:00 +14°C° 0 mm 2 mps 602 mmHg 54%
    13:00 +13°C° 0 mm 2 mps 602 mmHg 56%
    14:00 +13°C° 0 mm 2 mps 601 mmHg 58%
    15:00 +13°C° 0 mm 2 mps 601 mmHg 59%
    16:00 +11°C° 0 mm 1 mps 600 mmHg 68%
    17:00 +9°C° 0 mm 1 mps 599 mmHg 77%
    18:00 +7°C° 0 mm 1 mps 598 mmHg 85%
    19:00 +7°C° 0 mm 1 mps 598 mmHg 85%
    20:00 +7°C° 0 mm 1 mps 598 mmHg 85%
    21:00 +6°C° 0 mm 1 mps 598 mmHg 86%
    22:00 +6°C° 0 mm 1 mps 598 mmHg 85%
    23:00 +6°C° 0 mm 1 mps 597 mmHg 84%
    Show more